Regional Weather Roundup
Issued by NWS

Home | Current Version | Previous Version | Graphics & Text | Print | Product List | Glossary On
Versions: 1 2 3 4 5 6 7 8 9 10 11 12 13 14 15 16 17 18 19 20 21 22 23 24 25 26 27 28 29 30 31 32 33 34 35 36 37 38 39 40 41 42 43 44 45 46 47 48 49 50
372
ASUS43 KTOP 241908
RWRKS

WEATHER ROUNDUP FOR KANSAS
NATIONAL WEATHER SERVICE GOODLAND KS
200 PM CDT THU MAY 24 2018

NOTE:  "FAIR" INDICATES FEW OR NO CLOUDS BELOW 12,000 FEET WITH NO
SIGNIFICANT WEATHER AND/OR OBSTRUCTIONS TO VISIBILITY.

KSZ001>006-013>018-027>032-041>047-242000-
NORTHWEST KANSAS

CITY           SKY/WX    TMP DP  RH WIND       PRES   REMARKS
GOODLAND       SUNNY     84  56  38 N5        29.99F
HAYS           MOSUNNY   80  62  54 S15       30.00F
HILL CITY      MOSUNNY   84  59  42 S12G28    29.97F
RUSSELL        CLOUDY    82  62  50 S15       29.99F
$$

KSZ061>065-074>080-084>089-242000-
SOUTHWEST KANSAS

CITY           SKY/WX    TMP DP  RH WIND       PRES   REMARKS
DODGE CITY     SUNNY     86  61  42 S21G26    30.02F
ELKHART        SUNNY     85  57  37 SW21G29   30.04F
GARDEN CITY    SUNNY     87  52  29 SW16G26   30.00F
GREAT BEND     CLOUDY    79  64  60 S15G26    30.02F
LIBERAL        SUNNY     86  57  37 SW21G30   30.03F
PRATT          CLOUDY    75  62  65 S13       30.05F
$$

KSZ066>073-081>083-090>101-242000-
SOUTHEAST KANSAS

CITY           SKY/WX    TMP DP  RH WIND       PRES   REMARKS
CHANUTE        PTSUNNY   84  73  69 S10       30.06F
COFFEYVILLE    MOSUNNY   85  72  65 S8        30.04F
HUTCHINSON     CLOUDY    81  64  56 S15       30.04S
MEDICINE LODGE   N/A     77  64  64 S9        30.03F
NEWTON         CLOUDY    69  65  86 S17       30.07F
PARSONS        SUNNY     85  72  65 S7        30.07F
WICHITA INTL   PTSUNNY   79  70  74 E9        30.05F
WICHITA JABRA  PTSUNNY   73  71  93 E8        30.06F
WICHITA MCCONL PTSUNNY   76  69  80 SE8       30.05F
WINFIELD       CLOUDY    81  73  76 S9        30.05F
$$

KSZ007>012-019>026-033>040-048>060-102>105-242000-
NORTHEAST KANSAS

CITY           SKY/WX    TMP DP  RH WIND       PRES   REMARKS
CONCORDIA      CLOUDY    80  61  52 SW7       30.00F
EMPORIA        MOSUNNY   83  70  64 S10G20    30.04F
LAWRENCE       CLOUDY    86  71  60 SE9       30.04F
MANHATTAN      SUNNY     89  63  41 S15G28    30.00F
MARYSVILLE     MOSUNNY   84  68  58 S15G23    30.00F
OLATHE IND     CLOUDY    84  68  58 SE13G21   30.07F
OLATHE EXE     MOSUNNY   80  69  69 SE12      30.07F
SALINA         MOSUNNY   89  60  37 S24G30    30.00F
TOPEKA BILLARD MOSUNNY   87  71  58 S13       30.02F
TOPEKA FORBES  MOSUNNY   88  70  55 S13       30.04F
$$




USA.gov is the U.S. government's official web portal to all federal, state and local government web resources and services.